| time (UTC) | temp F | wind direction | speed MPH | gust MPH | rain 1hr in | rain 24hr in | rain mn in | humidity % | barometer mb |
| 20260901015005 | 78 | 148 | 0.0 | 0.0 | 0.00 | 0.20 | 0.20 | 73 | 1014.7 |
| 20260901014007 | 78 | 148 | 0.0 | 1.0 | 0.00 | 0.20 | 0.20 | 72 | 1014.6 |
| 20260901013006 | 78 | 83 | 0.0 | 0.0 | 0.00 | 0.20 | 0.20 | 75 | 1014.6 |
| 20260901012007 | 78 | 83 | 0.0 | 1.0 | 0.00 | 0.20 | 0.20 | 76 | 1014.5 |
| 20260901011006 | 78 | 83 | 0.0 | 1.0 | 0.00 | 0.20 | 0.20 | 76 | 1014.5 |
| 20260901010005 | 78 | 83 | 0.0 | 1.0 | 0.00 | 0.20 | 0.20 | 76 | 1014.4 |
| 20260901005006 | 79 | 83 | 0.0 | 1.0 | 0.00 | 0.20 | 0.20 | 76 | 1014.3 |
| 20260901004005 | 79 | 83 | 0.0 | 0.0 | 0.00 | 0.20 | 0.20 | 76 | 1014.3 |
| 20260901003005 | 79 | 83 | 0.0 | 1.0 | 0.00 | 0.20 | 0.20 | 76 | 1014.2 |
| 20260901002005 | 79 | 92 | 0.0 | 0.0 | 0.00 | 0.20 | 0.20 | 75 | 1014.2 |
| 20260901001005 | 79 | 92 | 1.0 | 2.0 | 0.00 | 0.20 | 0.20 | 74 | 1014.1 |
| 20260901000005 | 79 | 304 | 0.0 | 0.0 | 0.00 | 0.20 | 0.20 | 76 | 1014.2 |
| 20260831235005 | 79 | 304 | 0.0 | 1.0 | 0.00 | 0.20 | 0.20 | 76 | 1014.1 |
| 20260831234005 | 80 | 304 | 1.0 | 2.0 | 0.00 | 0.20 | 0.20 | 76 | 1014.0 |
| 20260831233007 | 80 | 304 | 1.0 | 2.0 | 0.00 | 0.20 | 0.20 | 77 | 1014.0 |
| 20260831232005 | 80 | 295 | 1.0 | 3.0 | 0.00 | 0.20 | 0.20 | 78 | 1014.1 |
| 20260831231005 | 80 | 290 | 1.0 | 2.0 | 0.00 | 0.20 | 0.20 | 79 | 1014.1 |
| 20260831230005 | 80 | 331 | 1.0 | 1.0 | 0.00 | 0.20 | 0.20 | 79 | 1014.0 |
| 20260831225005 | 80 | 331 | 0.0 | 2.0 | 0.00 | 0.20 | 0.20 | 80 | 1014.0 |
| 20260831224005 | 80 | 355 | 0.0 | 2.0 | 0.00 | 0.20 | 0.20 | 80 | 1013.9 |
| 20260831223006 | 79 | 5 | 1.0 | 3.0 | 0.00 | 0.20 | 0.20 | 80 | 1013.9 |
| 20260831221007 | 79 | 18 | 0.0 | 2.0 | 0.00 | 0.20 | 0.20 | 80 | 1014.1 |
| 20260831220005 | 78 | 53 | 0.0 | 2.0 | 0.00 | 0.20 | 0.20 | 80 | 1014.2 |
| 20260831215005 | 78 | 50 | 1.0 | 2.0 | 0.00 | 0.20 | 0.20 | 81 | 1014.2 |
| 20260831214005 | 78 | 355 | 1.0 | 3.0 | 0.00 | 0.20 | 0.20 | 81 | 1014.2 |
| 20260831213005 | 78 | 337 | 1.0 | 3.0 | 0.01 | 0.20 | 0.20 | 81 | 1014.2 |
| 20260831212006 | 78 | 266 | 1.0 | 3.0 | 0.01 | 0.20 | 0.20 | 79 | 1014.1 |
| 20260831211005 | 78 | 355 | 1.0 | 5.0 | 0.01 | 0.20 | 0.20 | 79 | 1014.1 |
| 20260831210005 | 78 | 340 | 2.0 | 3.0 | 0.01 | 0.20 | 0.20 | 78 | 1014.2 |
| 20260831205006 | 77 | 336 | 2.0 | 5.0 | 0.01 | 0.20 | 0.20 | 80 | 1014.5 |
| 20260831204005 | 77 | 325 | 3.0 | 10.0 | 0.01 | 0.20 | 0.20 | 81 | 1014.7 |
| 20260831202006 | 79 | 322 | 5.0 | 10.0 | 0.00 | 0.19 | 0.19 | 83 | 1014.9 |
| 20260831201005 | 79 | 281 | 5.0 | 12.0 | 0.00 | 0.19 | 0.19 | 83 | 1014.9 |
| 20260831195006 | 80 | 279 | 2.0 | 3.0 | 0.00 | 0.19 | 0.19 | 83 | 1014.9 |
| 20260831194006 | 80 | 259 | 1.0 | 3.0 | 0.00 | 0.19 | 0.19 | 83 | 1015.0 |
| 20260831192006 | 80 | 286 | 1.0 | 3.0 | 0.00 | 0.19 | 0.19 | 83 | 1015.1 |
| 20260831191006 | 80 | 268 | 2.0 | 6.0 | 0.00 | 0.19 | 0.19 | 83 | 1015.1 |
| 20260831190006 | 81 | 287 | 5.0 | 10.0 | 0.00 | 0.19 | 0.19 | 83 | 1015.2 |
| 20260831185005 | 82 | 351 | 1.0 | 2.0 | 0.00 | 0.19 | 0.19 | 82 | 1015.0 |
| 20260831184005 | 82 | 74 | 0.0 | 3.0 | 0.00 | 0.19 | 0.19 | 82 | 1014.9 |
| 20260831183006 | 82 | 74 | 0.0 | 3.0 | 0.00 | 0.19 | 0.19 | 82 | 1014.8 |
| 20260831181007 | 82 | 218 | 2.0 | 5.0 | 0.00 | 0.19 | 0.19 | 82 | 1015.0 |
| 20260831175005 | 83 | 194 | 0.0 | 2.0 | 0.00 | 0.19 | 0.19 | 82 | 1015.1 |
| 20260831174007 | 83 | 148 | 0.0 | 2.0 | 0.00 | 0.19 | 0.19 | 82 | 1015.1 |
| 20260831173006 | 83 | 219 | 0.0 | 3.0 | 0.00 | 0.19 | 0.19 | 82 | 1015.2 |
| 20260831172005 | 83 | 269 | 0.0 | 3.0 | 0.00 | 0.20 | 0.19 | 82 | 1015.1 |
| 20260831171006 | 83 | 304 | 1.0 | 6.0 | 0.01 | 0.20 | 0.19 | 82 | 1015.2 |
| 20260831170005 | 82 | 253 | 3.0 | 6.0 | 0.04 | 0.21 | 0.19 | 82 | 1015.3 |
| 20260831165006 | 81 | 243 | 2.0 | 3.0 | 0.05 | 0.23 | 0.19 | 81 | 1015.4 |
| 20260831164005 | 80 | 295 | 1.0 | 3.0 | 0.09 | 0.25 | 0.19 | 80 | 1015.3 |
| 20260831163005 | 78 | 258 | 0.0 | 5.0 | 0.19 | 0.28 | 0.19 | 76 | 1015.5 |
| 20260831161007 | 77 | 241 | 5.0 | 6.0 | 0.18 | 0.27 | 0.18 | 81 | 1015.7 |
| 20260831155005 | 78 | 236 | 3.0 | 6.0 | 0.14 | 0.23 | 0.14 | 83 | 1016.2 |
| 20260831154005 | 81 | 333 | 5.0 | 10.0 | 0.10 | 0.19 | 0.10 | 78 | 1016.1 |
| 20260831152006 | 88 | 3 | 2.0 | 3.0 | 0.00 | 0.09 | 0.00 | 73 | 1015.9 |
| 20260831151006 | 88 | 12 | 1.0 | 6.0 | 0.00 | 0.09 | 0.00 | 72 | 1015.8 |
| 20260831150006 | 88 | 77 | 2.0 | 5.0 | 0.00 | 0.09 | 0.00 | 71 | 1015.7 |
| 20260831145006 | 87 | 305 | 2.0 | 5.0 | 0.00 | 0.09 | 0.00 | 73 | 1015.9 |
| 20260831144007 | 88 | 120 | 2.0 | 3.0 | 0.00 | 0.09 | 0.00 | 74 | 1015.7 |
| 20260831143007 | 88 | 8 | 1.0 | 3.0 | 0.00 | 0.09 | 0.00 | 75 | 1015.9 |
| 20260831140004 | 88 | 123 | 2.0 | 6.0 | 0.00 | 0.09 | 0.00 | 75 | 1015.7 |
| 20260831135005 | 88 | 93 | 2.0 | 5.0 | 0.00 | 0.09 | 0.00 | 75 | 1015.7 |
| 20260831134005 | 88 | 118 | 2.0 | 3.0 | 0.00 | 0.09 | 0.00 | 74 | 1015.5 |
| 20260831133005 | 86 | 341 | 1.0 | 3.0 | 0.00 | 0.09 | 0.00 | 76 | 1015.4 |
| 20260831132006 | 86 | 21 | 1.0 | 3.0 | 0.00 | 0.09 | 0.00 | 77 | 1015.4 |
| 20260831131006 | 84 | 357 | 1.0 | 3.0 | 0.00 | 0.09 | 0.00 | 79 | 1015.4 |
| 20260831130004 | 81 | 304 | 1.0 | 3.0 | 0.00 | 0.09 | 0.00 | 82 | 1015.2 |
| 20260831125005 | 80 | 257 | 1.0 | 2.0 | 0.00 | 0.09 | 0.00 | 82 | 1015.2 |
| 20260831124006 | 79 | 305 | 1.0 | 3.0 | 0.00 | 0.09 | 0.00 | 81 | 1015.2 |
| 20260831121007 | 77 | 355 | 2.0 | 3.0 | 0.00 | 0.09 | 0.00 | 71 | 1015.1 |
| 20260831120005 | 77 | 339 | 0.0 | 2.0 | 0.00 | 0.09 | 0.00 | 68 | 1014.9 |
| 20260831114006 | 76 | 184 | 0.0 | 1.0 | 0.00 | 0.09 | 0.00 | 68 | 1014.6 |
| 20260831113005 | 76 | 184 | 0.0 | 0.0 | 0.00 | 0.09 | 0.00 | 68 | 1014.7 |
| 20260831112006 | 76 | 184 | 0.0 | 0.0 | 0.00 | 0.09 | 0.00 | 68 | 1014.4 |
| 20260831111005 | 75 | 184 | 0.0 | 0.0 | 0.00 | 0.09 | 0.00 | 68 | 1014.3 |
| 20260831110006 | 75 | 184 | 0.0 | 0.0 | 0.00 | 0.09 | 0.00 | 69 | 1014.1 |
| 20260831105005 | 75 | 184 | 0.0 | 0.0 | 0.00 | 0.09 | 0.00 | 69 | 1013.9 |
| 20260831104007 | 75 | 184 | 0.0 | 0.0 | 0.00 | 0.09 | 0.00 | 69 | 1013.9 |
| 20260831103005 | 75 | 184 | 0.0 | 0.0 | 0.00 | 0.09 | 0.00 | 69 | 1013.8 |
| 20260831102005 | 75 | 184 | 0.0 | 1.0 | 0.00 | 0.09 | 0.00 | 69 | 1013.7 |
| 20260831101005 | 75 | 184 | 0.0 | 0.0 | 0.00 | 0.09 | 0.00 | 70 | 1013.7 |
| 20260831100005 | 75 | 184 | 0.0 | 0.0 | 0.00 | 0.09 | 0.00 | 71 | 1013.7 |
| 20260831095005 | 75 | 184 | 0.0 | 0.0 | 0.00 | 0.09 | 0.00 | 71 | 1013.7 |
| 20260831094005 | 75 | 184 | 0.0 | 1.0 | 0.00 | 0.09 | 0.00 | 71 | 1013.7 |
| 20260831093007 | 75 | 184 | 0.0 | 1.0 | 0.00 | 0.09 | 0.00 | 71 | 1013.6 |
| 20260831090004 | 75 | 184 | 1.0 | 2.0 | 0.00 | 0.09 | 0.00 | 72 | 1013.7 |
| 20260831085005 | 75 | 184 | 0.0 | 1.0 | 0.00 | 0.09 | 0.00 | 74 | 1014.0 |
| 20260831084007 | 75 | 184 | 0.0 | 1.0 | 0.00 | 0.09 | 0.00 | 74 | 1014.0 |
| 20260831081005 | 75 | 32 | 0.0 | 1.0 | 0.00 | 0.09 | 0.00 | 75 | 1013.9 |
| 20260831080005 | 75 | 32 | 1.0 | 2.0 | 0.00 | 0.09 | 0.00 | 76 | 1013.9 |
| 20260831075006 | 75 | 59 | 0.0 | 2.0 | 0.00 | 0.09 | 0.00 | 77 | 1013.9 |
| 20260831074005 | 75 | 148 | 1.0 | 2.0 | 0.00 | 0.09 | 0.00 | 78 | 1013.8 |
| 20260831073005 | 75 | 126 | 1.0 | 2.0 | 0.00 | 0.09 | 0.00 | 78 | 1014.0 |
| 20260831071005 | 75 | 69 | 0.0 | 1.0 | 0.00 | 0.09 | 0.00 | 80 | 1014.1 |
| 20260831070005 | 76 | 73 | 0.0 | 2.0 | 0.00 | 0.09 | 0.00 | 80 | 1014.1 |
| 20260831065005 | 76 | 111 | 0.0 | 2.0 | 0.00 | 0.09 | 0.00 | 79 | 1014.1 |
| 20260831064006 | 76 | 97 | 1.0 | 3.0 | 0.00 | 0.09 | 0.00 | 79 | 1014.1 |
| 20260831063005 | 76 | 77 | 1.0 | 2.0 | 0.00 | 0.09 | 0.00 | 79 | 1014.2 |
| 20260831062005 | 76 | 49 | 0.0 | 7.0 | 0.00 | 0.09 | 0.00 | 80 | 1014.3 |
| 20260831060005 | 76 | 91 | 3.0 | 6.0 | 0.00 | 0.09 | 0.00 | 71 | 1014.5 |
| 20260831055006 | 75 | 119 | 1.0 | 1.0 | 0.00 | 0.09 | 0.00 | 70 | 1014.6 |
| 20260831053005 | 75 | 72 | 1.0 | 2.0 | 0.00 | 0.09 | 0.00 | 72 | 1014.8 |
| 20260831052005 | 75 | 72 | 0.0 | 0.0 | 0.00 | 0.09 | 0.00 | 73 | 1014.9 |
| 20260831051006 | 75 | 72 | 0.0 | 1.0 | 0.00 | 0.09 | 0.00 | 73 | 1014.9 |
| 20260831050005 | 75 | 72 | 0.0 | 1.0 | 0.00 | 0.09 | 0.00 | 74 | 1015.0 |
| 20260831045007 | 75 | 72 | 0.0 | 0.0 | 0.00 | 0.09 | 0.00 | 75 | 1015.1 |
| 20260831044005 | 75 | 72 | 0.0 | 0.0 | 0.00 | 0.09 | 0.00 | 75 | 1015.3 |
| 20260831043005 | 75 | 72 | 0.0 | 1.0 | 0.00 | 0.09 | 0.00 | 75 | 1015.4 |
| 20260831042005 | 75 | 72 | 0.0 | 0.0 | 0.00 | 0.09 | 0.00 | 75 | 1015.5 |
| 20260831040005 | 76 | 72 | 0.0 | 0.0 | 0.00 | 0.09 | 0.00 | 77 | 1015.6 |
| 20260831035005 | 76 | 72 | 0.0 | 1.0 | 0.00 | 0.09 | 0.09 | 77 | 1015.7 |
| 20260831034005 | 76 | 72 | 0.0 | 1.0 | 0.00 | 0.09 | 0.09 | 78 | 1015.6 |
| 20260831033005 | 76 | 72 | 0.0 | 0.0 | 0.00 | 0.09 | 0.09 | 78 | 1015.8 |
| 20260831032006 | 76 | 72 | 0.0 | 1.0 | 0.00 | 0.09 | 0.09 | 77 | 1015.8 |
| 20260831031005 | 76 | 72 | 0.0 | 0.0 | 0.00 | 0.09 | 0.09 | 79 | 1015.7 |
| 20260831030006 | 76 | 72 | 0.0 | 0.0 | 0.00 | 0.09 | 0.09 | 80 | 1015.6 |
| 20260831025006 | 76 | 72 | 0.0 | 1.0 | 0.00 | 0.09 | 0.09 | 82 | 1015.5 |
| 20260831024005 | 76 | 72 | 0.0 | 1.0 | 0.00 | 0.09 | 0.09 | 81 | 1015.4 |
| 20260831022005 | 77 | 72 | 0.0 | 0.0 | 0.00 | 0.09 | 0.09 | 83 | 1015.5 |
| 20260831021006 | 77 | 72 | 0.0 | 0.0 | 0.00 | 0.09 | 0.09 | 83 | 1015.5 |
| 20260831020006 | 77 | 72 | 0.0 | 1.0 | 0.00 | 0.09 | 0.09 | 83 | 1015.6 |